| time (UTC) | temp C | wind direction | speed KPH | gust KPH | rain 1hr cm | rain 24hr cm | rain mn cm | humidity % | barometer mb |
| 20260904233012 | 10 | 231 | 0.0 | 4.8 | 0.03 | 0.46 | 0.03 | 92 | 998.1 |
| 20260904231510 | 10 | 231 | 0.0 | 3.2 | 0.03 | 0.46 | 0.03 | 91 | 998.0 |
| 20260904230010 | 11 | 231 | 0.0 | 0.0 | 0.00 | 0.43 | 0.00 | 90 | 998.1 |
| 20260904224509 | 11 | 231 | 0.0 | 1.6 | 0.00 | 0.43 | 0.00 | 89 | 998.0 |
| 20260904223010 | 11 | 231 | 1.6 | 6.4 | 0.00 | 0.43 | 0.00 | 90 | 997.9 |
| 20260904220009 | 11 | 253 | 1.6 | 4.8 | 0.00 | 0.43 | 0.43 | 90 | 997.7 |
| 20260904214509 | 11 | 253 | 0.0 | 0.0 | 0.00 | 0.43 | 0.43 | 88 | 997.4 |
| 20260904213012 | 11 | 254 | 0.0 | 6.4 | 0.00 | 0.43 | 0.43 | 88 | 997.2 |
| 20260904211516 | 11 | 253 | 0.0 | 6.4 | 0.00 | 0.43 | 0.43 | 87 | 997.2 |
| 20260904210021 | 11 | 253 | 1.6 | 6.4 | 0.00 | 0.43 | 0.43 | 86 | 997.2 |
| 20260904204517 | 11 | 252 | 4.8 | 12.9 | 0.00 | 0.43 | 0.43 | 86 | 997.4 |
| 20260904203009 | 11 | 258 | 4.8 | 12.9 | 0.00 | 0.43 | 0.43 | 87 | 997.3 |
| 20260904201509 | 12 | 289 | 0.0 | 8.0 | 0.00 | 0.43 | 0.43 | 88 | 997.2 |
| 20260904200009 | 12 | 289 | 0.0 | 8.0 | 0.05 | 0.46 | 0.43 | 87 | 997.1 |
| 20260904194509 | 12 | 294 | 3.2 | 8.0 | 0.05 | 0.46 | 0.43 | 88 | 997.0 |
| 20260904193010 | 12 | 294 | 1.6 | 6.4 | 0.10 | 0.46 | 0.43 | 87 | 997.0 |
| 20260904191511 | 12 | 309 | 3.2 | 12.9 | 0.13 | 0.46 | 0.43 | 88 | 997.1 |
| 20260904190011 | 12 | 279 | 6.4 | 20.9 | 0.15 | 0.61 | 0.41 | 88 | 997.2 |
| 20260904184509 | 12 | 294 | 6.4 | 20.9 | 0.15 | 0.61 | 0.38 | 89 | 997.0 |
| 20260904183009 | 12 | 289 | 8.0 | 16.1 | 0.15 | 0.56 | 0.33 | 90 | 996.8 |
| 20260904181511 | 12 | 237 | 4.8 | 16.1 | 0.13 | 0.53 | 0.33 | 91 | 996.6 |
| 20260904180009 | 12 | 259 | 14.5 | 19.3 | 0.05 | 0.61 | 0.25 | 93 | 996.6 |
| 20260904174511 | 12 | 165 | 0.0 | 4.8 | 0.03 | 0.56 | 0.23 | 94 | 996.4 |
| 20260904173010 | 12 | 165 | 0.0 | 0.0 | 0.03 | 0.53 | 0.20 | 94 | 996.4 |
| 20260904171518 | 12 | 165 | 1.6 | 12.9 | 0.05 | 0.53 | 0.20 | 93 | 996.4 |
| 20260904170009 | 12 | 167 | 3.2 | 8.0 | 0.08 | 0.61 | 0.20 | 92 | 996.3 |
| 20260904164509 | 12 | 167 | 6.4 | 8.0 | 0.15 | 0.61 | 0.20 | 92 | 996.3 |
| 20260904163009 | 13 | 165 | 6.4 | 12.9 | 0.18 | 0.58 | 0.18 | 91 | 996.3 |
| 20260904161509 | 13 | 174 | 8.0 | 12.9 | 0.15 | 0.56 | 0.15 | 90 | 996.2 |
| 20260904160011 | 13 | 165 | 9.7 | 12.9 | 0.13 | 0.61 | 0.13 | 87 | 996.2 |
| 20260904154508 | 13 | 227 | 3.2 | 14.5 | 0.05 | 0.56 | 0.05 | 83 | 996.4 |
| 20260904153018 | 15 | 188 | 6.4 | 16.1 | 0.00 | 0.51 | 0.00 | 81 | 996.4 |
| 20260904151511 | 15 | 184 | 8.0 | 20.9 | 0.00 | 0.51 | 0.00 | 78 | 996.4 |
| 20260904150025 | 15 | 175 | 11.3 | 25.7 | 0.00 | 0.61 | 0.00 | 74 | 996.4 |
| 20260904144511 | 16 | 205 | 9.7 | 14.5 | 0.00 | 0.61 | 0.00 | 68 | 996.2 |
| 20260904143011 | 16 | 223 | 4.8 | 16.1 | 0.00 | 0.61 | 0.00 | 67 | 996.3 |
| 20260904141509 | 16 | 204 | 11.3 | 19.3 | 0.00 | 0.61 | 0.00 | 65 | 996.4 |
| 20260904140009 | 16 | 237 | 8.0 | 16.1 | 0.00 | 0.61 | 0.00 | 65 | 996.4 |
| 20260904134529 | 17 | 252 | 11.3 | 17.7 | 0.00 | 0.61 | 0.00 | 61 | 996.5 |
| 20260904133009 | 17 | 207 | 6.4 | 17.7 | 0.00 | 0.61 | 0.00 | 62 | 996.6 |
| 20260904131513 | 16 | 234 | 8.0 | 17.7 | 0.00 | 0.61 | 0.00 | 63 | 996.7 |
| 20260904130017 | 17 | 254 | 11.3 | 20.9 | 0.00 | 0.61 | 0.00 | 62 | 996.9 |
| 20260904123010 | 17 | 261 | 9.7 | 17.7 | 0.00 | 0.61 | 0.00 | 61 | 997.4 |
| 20260904121510 | 17 | 257 | 9.7 | 20.9 | 0.00 | 0.61 | 0.00 | 60 | 997.5 |
| 20260904120009 | 17 | 223 | 11.3 | 22.5 | 0.00 | 0.61 | 0.00 | 61 | 997.6 |
| 20260904114521 | 17 | 202 | 6.4 | 14.5 | 0.00 | 0.61 | 0.00 | 63 | 997.6 |
| 20260904113010 | 16 | 229 | 6.4 | 17.7 | 0.00 | 0.61 | 0.00 | 64 | 997.8 |
| 20260904111521 | 16 | 238 | 6.4 | 16.1 | 0.00 | 0.61 | 0.00 | 62 | 997.8 |
| 20260904110010 | 16 | 219 | 9.7 | 16.1 | 0.00 | 0.61 | 0.00 | 63 | 997.8 |
| 20260904104510 | 16 | 231 | 8.0 | 14.5 | 0.00 | 0.61 | 0.00 | 63 | 998.0 |
| 20260904103009 | 16 | 220 | 4.8 | 17.7 | 0.00 | 0.61 | 0.00 | 63 | 998.0 |
| 20260904101510 | 15 | 246 | 11.3 | 20.9 | 0.00 | 0.61 | 0.00 | 64 | 998.4 |
| 20260904100010 | 16 | 232 | 11.3 | 17.7 | 0.00 | 0.64 | 0.00 | 63 | 998.6 |
| 20260904094519 | 16 | 288 | 9.7 | 22.5 | 0.00 | 0.64 | 0.00 | 62 | 998.7 |
| 20260904093010 | 16 | 222 | 9.7 | 17.7 | 0.00 | 0.64 | 0.00 | 63 | 998.8 |
| 20260904091509 | 15 | 227 | 8.0 | 14.5 | 0.00 | 0.64 | 0.00 | 66 | 998.9 |
| 20260904090010 | 15 | 240 | 9.7 | 17.7 | 0.00 | 0.66 | 0.00 | 70 | 999.2 |
| 20260904084513 | 14 | 242 | 9.7 | 17.7 | 0.00 | 0.66 | 0.00 | 74 | 999.1 |
| 20260904083017 | 13 | 229 | 6.4 | 11.3 | 0.00 | 0.66 | 0.00 | 76 | 999.1 |
| 20260904081511 | 13 | 230 | 6.4 | 14.5 | 0.00 | 0.66 | 0.00 | 78 | 999.3 |
| 20260904080011 | 12 | 172 | 4.8 | 11.3 | 0.00 | 0.66 | 0.00 | 83 | 999.5 |
| 20260904074509 | 12 | 172 | 4.8 | 8.0 | 0.00 | 0.66 | 0.00 | 82 | 999.5 |
| 20260904073009 | 12 | 172 | 4.8 | 8.0 | 0.00 | 0.66 | 0.00 | 86 | 999.5 |
| 20260904071510 | 11 | 172 | 0.0 | 8.0 | 0.00 | 0.66 | 0.00 | 90 | 999.6 |
| 20260904070009 | 11 | 172 | 6.4 | 9.7 | 0.00 | 0.66 | 0.00 | 91 | 999.7 |
| 20260904064509 | 11 | 173 | 6.4 | 9.7 | 0.00 | 0.66 | 0.00 | 92 | 999.9 |
| 20260904063014 | 11 | 172 | 3.2 | 14.5 | 0.00 | 0.66 | 0.00 | 92 | 1000.0 |
| 20260904061509 | 10 | 160 | 3.2 | 8.0 | 0.00 | 0.66 | 0.00 | 93 | 999.8 |
| 20260904060012 | 10 | 160 | 4.8 | 8.0 | 0.00 | 0.66 | 0.00 | 93 | 1000.2 |
| 20260904054510 | 10 | 159 | 4.8 | 9.7 | 0.00 | 0.66 | 0.00 | 94 | 1000.1 |
| 20260904053011 | 10 | 246 | 0.0 | 6.4 | 0.00 | 0.66 | 0.00 | 93 | 1000.4 |
| 20260904051510 | 10 | 246 | 0.0 | 6.4 | 0.00 | 0.66 | 0.00 | 93 | 1000.7 |
| 20260904050009 | 10 | 246 | 3.2 | 6.4 | 0.00 | 0.66 | 0.00 | 92 | 1000.6 |
| 20260904044511 | 10 | 246 | 3.2 | 4.8 | 0.00 | 0.66 | 0.00 | 90 | 1000.8 |
| 20260904043013 | 10 | 246 | 0.0 | 0.0 | 0.00 | 0.66 | 0.00 | 87 | 1000.7 |
| 20260904041510 | 11 | 249 | 0.0 | 3.2 | 0.00 | 0.66 | 0.00 | 85 | 1000.8 |
| 20260904040009 | 11 | 246 | 0.0 | 8.0 | 0.00 | 0.66 | 0.00 | 86 | 1000.8 |
| 20260904034514 | 11 | 246 | 0.0 | 8.0 | 0.00 | 0.66 | 0.00 | 87 | 1000.9 |
| 20260904033009 | 11 | 244 | 0.0 | 3.2 | 0.00 | 0.66 | 0.00 | 86 | 1001.0 |
| 20260904031510 | 11 | 244 | 0.0 | 6.4 | 0.00 | 0.66 | 0.00 | 85 | 1000.9 |
| 20260904030009 | 11 | 246 | 6.4 | 12.9 | 0.00 | 0.66 | 0.00 | 85 | 1001.2 |
| 20260904024513 | 11 | 242 | 3.2 | 11.3 | 0.00 | 0.66 | 0.00 | 85 | 1001.2 |
| 20260904023011 | 11 | 242 | 0.0 | 12.9 | 0.00 | 0.66 | 0.00 | 85 | 1001.2 |
| 20260904021511 | 12 | 240 | 0.0 | 12.9 | 0.00 | 0.66 | 0.00 | 85 | 1001.3 |
| 20260904020010 | 12 | 240 | 0.0 | 6.4 | 0.00 | 0.66 | 0.00 | 85 | 1001.4 |
| 20260904014510 | 12 | 238 | 8.0 | 16.1 | 0.00 | 0.66 | 0.00 | 85 | 1001.6 |
| 20260904013011 | 12 | 242 | 3.2 | 16.1 | 0.00 | 0.66 | 0.00 | 84 | 1001.6 |
| 20260904011515 | 12 | 250 | 9.7 | 24.1 | 0.00 | 0.66 | 0.00 | 84 | 1001.6 |
| 20260904010011 | 12 | 265 | 8.0 | 16.1 | 0.00 | 0.66 | 0.00 | 85 | 1001.8 |
| 20260904004510 | 12 | 268 | 8.0 | 17.7 | 0.00 | 0.66 | 0.00 | 85 | 1001.7 |
| 20260904003014 | 12 | 294 | 1.6 | 14.5 | 0.00 | 0.66 | 0.00 | 84 | 1001.9 |
| 20260904001514 | 12 | 257 | 4.8 | 16.1 | 0.00 | 0.66 | 0.00 | 86 | 1002.0 |
| 20260904000009 | 12 | 267 | 3.2 | 16.1 | 0.00 | 0.66 | 0.00 | 86 | 1002.2 |
| 20260903234510 | 13 | 245 | 6.4 | 12.9 | 0.00 | 0.66 | 0.00 | 87 | 1001.9 |